Weather History for Dallas Addison, TX

Change the Weather History Date:

Friday, January 4, 2013

  Actual Average Record
Temperature  
Mean Temperature 44 °F -  
Max Temperature 48 °F 54 °F 75 °F (1997)
Min Temperature 39 °F 38 °F 21 °F (1999)
Degree Days  
Heating Degree Days 22    
Moisture  
Dew Point 28 °F    
Average Humidity 56    
Maximum Humidity 70    
Minimum Humidity 43    
Precipitation  
Precipitation 0.00 in - - ()
Sea Level Pressure  
Sea Level Pressure 30.43 in    
Wind  
Wind Speed 2 mph (ENE)    
Max Wind Speed 7 mph    
Max Gust Speed -    
Visibility 10 miles    
Events      
Averages and records for this station are not official NWS values.
T = Trace of Precipitation, MM = Missing Value Source: NWS Daily Summary

Daily Weather History Graph

Daily Weather History Graph

Search for Another Location

Airport:

Trip Planner

Search our weather history database for the weather conditions in past years. The results will help you decide how hot, cold, wet, or windy it might be!

Date:

Astronomy

Jan. 04, 2013 Rise Set
Actual Time 7:30 AM CST 5:34 PM CST
Civil Twilight 7:03 AM CST 6:01 PM CST
Nautical Twilight 6:32 AM CST 6:32 PM CST
Astronomical Twilight 6:02 AM CST 7:02 PM CST
Moon No Moon Rise 11:38 AM CST (1/4)
Length of Visible Light 10h 57m
Length of Day
10h 03m
Waning Gibbous, 55% of the Moon is Illuminated
Jan 4
Waning Gibbous
Jan 4
Last Quarter
Jan 11
New
Jan 18
First Quarter
Jan 26
Full

Hourly Weather History & Observations

Time (CST) Temp. Windchill Dew Point Humidity Pressure Visibility Wind Dir Wind Speed Gust Speed Precip Events Conditions
12:15 AM 42.8 °F - 28.4 °F 57% 30.43 in 10.0 mi Calm Calm - N/A   Overcast
12:35 AM 42.8 °F - 28.4 °F 57% 30.43 in 10.0 mi Calm Calm - N/A   Overcast
12:55 AM 41.0 °F 39.0 °F 28.4 °F 61% 30.44 in 10.0 mi NNW 3.5 mph - N/A   Mostly Cloudy
1:15 AM 41.0 °F 39.0 °F 28.4 °F 61% 30.43 in 10.0 mi North 3.5 mph - N/A   Clear
1:35 AM 41.0 °F 38.0 °F 28.4 °F 61% 30.43 in 10.0 mi North 4.6 mph - N/A   Scattered Clouds
1:55 AM 41.0 °F 38.0 °F 28.4 °F 61% 30.43 in 10.0 mi North 4.6 mph - N/A   Mostly Cloudy
2:15 AM 41.0 °F - 28.4 °F 61% 30.42 in 10.0 mi Calm Calm - N/A   Overcast
2:55 AM 41.0 °F - 28.4 °F 61% 30.45 in 10.0 mi Calm Calm - N/A   Overcast
3:15 AM 39.2 °F - 30.2 °F 70% 30.45 in 10.0 mi Calm Calm - N/A   Overcast
5:47 AM 39.2 °F - 28.4 °F 65% 30.49 in 10.0 mi Calm Calm - N/A   Overcast
7:58 AM 39.2 °F 35.9 °F 30.2 °F 70% 30.49 in 10.0 mi North 4.6 mph - N/A   Overcast
8:52 AM 41.0 °F 38.0 °F 28.4 °F 61% 30.51 in 13.0 mi NNW 4.6 mph - N/A   Overcast
9:53 AM 41.0 °F 39.0 °F 28.4 °F 61% 30.54 in 10.0 mi SW 3.5 mph - N/A   Overcast
10:55 AM 41.0 °F - 28.4 °F 61% 30.53 in 13.0 mi Calm Calm - N/A   Overcast
11:47 AM 42.8 °F 39.3 °F 30.2 °F 61% 30.51 in 13.0 mi NW 5.8 mph - N/A   Overcast
12:47 PM 44.6 °F 43.1 °F 28.4 °F 53% 30.47 in 13.0 mi SSW 3.5 mph - N/A   Overcast
1:58 PM 46.4 °F - 28.4 °F 50% 30.44 in 13.0 mi Calm Calm - N/A   Overcast
2:49 PM 48.2 °F - 28.4 °F 46% 30.41 in 10.0 mi Calm Calm - N/A   Scattered Clouds
3:47 PM 48.2 °F - 26.6 °F 43% 30.40 in 10.0 mi South 4.6 mph - N/A   Mostly Cloudy
4:47 PM 46.4 °F 44.3 °F 24.8 °F 43% 30.40 in 10.0 mi East 4.6 mph - N/A   Mostly Cloudy
5:52 PM 46.4 °F - 24.8 °F 43% 30.40 in 10.0 mi Calm Calm - N/A   Overcast
6:54 PM 46.4 °F 44.3 °F 26.6 °F 46% 30.40 in 10.0 mi East 4.6 mph - N/A   Overcast
8:47 PM 46.4 °F 44.3 °F 26.6 °F 46% 30.39 in 10.0 mi East 4.6 mph - N/A   Overcast
9:15 PM 44.6 °F 40.7 °F 28.4 °F 53% 30.38 in 10.0 mi East 6.9 mph - N/A   Overcast
9:47 PM 46.4 °F 44.3 °F 26.6 °F 46% 30.39 in 10.0 mi East 4.6 mph - N/A   Overcast
9:55 PM 44.6 °F 41.4 °F 28.4 °F 53% 30.38 in 10.0 mi ESE 5.8 mph - N/A   Overcast
10:15 PM 44.6 °F 43.1 °F 28.4 °F 53% 30.38 in 10.0 mi SE 3.5 mph - N/A   Overcast
10:35 PM 44.6 °F 42.2 °F 30.2 °F 57% 30.37 in 10.0 mi ESE 4.6 mph - N/A   Light Drizzle
10:55 PM 44.6 °F - 30.2 °F 57% 30.37 in 10.0 mi Calm Calm - N/A   Overcast
11:15 PM 44.6 °F - 28.4 °F 53% 30.37 in 10.0 mi Calm Calm - N/A   Overcast
11:35 PM 44.6 °F 42.2 °F 28.4 °F 53% 30.37 in 10.0 mi SSW 4.6 mph - N/A   Light Drizzle
11:55 PM 44.6 °F - 30.2 °F 57% 30.37 in 10.0 mi Calm Calm - N/A   Overcast